[[{"header":{"parameterUnit":"m.s-1","parameterCategory":1,"la1":30.2992,"la2":30.254,"lo1":-89.0895,"lo2":-89.0443,"dy":0.0025,"dx":0.0025,"nx":19,"ny":19,"refTime":"2026-05-10T21:00:00:Z","depth":0,"parameterNumber":2,"parameterNumberName":"U-component_of_WINDS"},"data":[0,0,0,-0.3081,-0.3078,-0.2903,-0.2903,-0.2705,-0.2704,0,0,0,0,0,0,0,0,0,0,0,-0.3147,-0.3146,-0.3082,-0.3078,-0.2903,-0.2902,-0.2706,-0.2704,0,0,0,0,0,0,0,0,0,0,0,-0.3147,-0.3146,-0.3145,-0.3077,-0.2904,-0.2902,-0.2706,-0.2829,0,0,0,0,0,0,0,0,0,0,-0.2994,-0.3067,-0.3146,-0.3145,-0.3076,-0.2904,-0.2902,-0.2834,-0.2821,-0.2795,0,-0.2774,0,-0.2736,-0.2692,-0.2691,0,0,0,-0.3068,-0.3078,-0.3019,-0.3145,-0.3075,-0.2904,-0.2979,-0.2827,-0.2812,-0.2778,-0.277,-0.2763,-0.2733,-0.2691,-0.269,-0.2573,-0.2573,0,0,-0.3077,-0.3122,-0.3029,-0.301,-0.3036,-0.2985,-0.2974,-0.2817,-0.2813,-0.277,-0.2758,-0.2729,-0.269,-0.2688,-0.2573,-0.2573,0,0,0,-0.3112,-0.313,-0.3074,-0.3019,-0.2985,-0.298,-0.2967,-0.282,-0.2798,-0.2755,-0.2727,-0.2689,-0.2687,-0.2573,-0.2573,-0.2614,0,0,0,-0.3117,-0.315,-0.3079,-0.3105,-0.2989,-0.29,-0.2974,-0.2809,-0.2789,-0.2728,-0.2689,-0.2685,-0.2573,-0.2573,-0.2613,-0.2626,0,0,0,-0.3153,-0.3154,-0.3133,-0.3107,-0.3034,-0.2901,-0.287,-0.2803,-0.2773,-0.2691,-0.2684,-0.2573,-0.2573,-0.2612,-0.2624,-0.2611,0,0,0,-0.3205,-0.317,-0.3135,-0.3085,-0.3036,-0.2928,-0.287,-0.2788,-0.2723,-0.2688,-0.2573,-0.2573,-0.2612,-0.2623,-0.261,-0.2608,-0.2611,0,0,-0.3186,-0.3169,-0.3137,-0.31,-0.3011,-0.2951,-0.2868,-0.2765,-0.2716,-0.2624,-0.262,-0.2614,-0.2624,-0.261,-0.2611,-0.2614,0,0,0,-0.3146,-0.3124,-0.309,-0.3031,-0.2953,-0.2889,-0.2794,-0.2757,-0.2677,-0.2677,-0.2603,-0.2608,-0.2598,-0.2595,-0.2597,-0.2587,-0.2573,-0.2573,-0.2573,-0.3183,-0.3124,-0.3068,-0.299,-0.2934,-0.284,-0.279,-0.2724,-0.2678,-0.2663,-0.2635,-0.2642,-0.264,-0.2642,-0.2632,-0.2628,-0.2628,-0.2629,-0.2629,-0.3151,-0.3111,-0.3056,-0.2982,-0.2922,-0.2859,-0.277,-0.2741,-0.2676,-0.2657,-0.2645,-0.263,-0.2647,-0.2635,-0.2631,-0.2631,-0.263,-0.263,-0.263,-0.3168,-0.3139,-0.3096,-0.3009,-0.2949,-0.2872,-0.2814,-0.276,-0.2709,-0.2698,-0.2665,-0.2664,-0.2657,-0.2686,-0.2686,-0.2686,-0.2686,-0.2686,-0.2686,-0.3204,-0.3154,-0.3111,-0.303,-0.2988,-0.2926,-0.2836,-0.2794,-0.2734,-0.27,-0.2699,-0.2658,-0.2659,-0.2661,-0.2686,-0.2686,-0.2686,-0.2686,-0.2686,-0.3193,-0.3188,-0.3122,-0.308,-0.2984,-0.2931,-0.2865,-0.2785,-0.2742,-0.2717,-0.268,-0.2689,-0.2667,-0.2665,-0.2666,-0.2691,-0.2691,-0.2691,-0.2691,-0.3208,-0.3194,-0.3116,-0.3055,-0.2988,-0.2924,-0.2855,-0.2787,-0.2716,-0.2688,-0.2677,-0.2674,-0.2674,-0.2653,-0.2651,-0.2651,-0.2671,-0.2671,-0.2671,-0.32,-0.3177,-0.3127,-0.3058,-0.2981,-0.2916,-0.2851,-0.2785,-0.2703,-0.2669,-0.2665,-0.2665,-0.2661,-0.2662,-0.2626,-0.2624,-0.2623,0,0]},{"header":{"parameterUnit":"m.s-1","parameterCategory":1,"la1":30.2992,"la2":30.254,"lo1":-89.0895,"lo2":-89.0443,"dy":0.0025,"dx":0.0025,"nx":19,"ny":19,"refTime":"2026-05-10T21:00:00:Z","depth":0,"parameterNumber":3,"parameterNumberName":"V-component_of_WINDS"},"data":[0,0,0,2.6423,2.6423,2.642,2.642,2.6415,2.6415,0,0,0,0,0,0,0,0,0,0,0,2.6423,2.6423,2.6423,2.6423,2.642,2.642,2.6415,2.6415,0,0,0,0,0,0,0,0,0,0,0,2.6423,2.6423,2.6423,2.6423,2.642,2.642,2.6415,2.6418,0,0,0,0,0,0,0,0,0,0,2.642,2.642,2.6423,2.6423,2.6423,2.642,2.642,2.6418,2.6418,2.6416,0,2.6414,0,2.6414,2.6415,2.6415,0,0,0,2.6423,2.642,2.642,2.6423,2.6423,2.642,2.6421,2.6418,2.6417,2.6415,2.6414,2.6414,2.6414,2.6415,2.6415,2.6401,2.6401,0,0,2.6423,2.6422,2.642,2.642,2.642,2.6421,2.6421,2.6417,2.6416,2.6414,2.6414,2.6414,2.6415,2.6415,2.6401,2.6401,0,0,0,2.6423,2.6422,2.6422,2.642,2.6419,2.6421,2.6421,2.6416,2.6416,2.6414,2.6414,2.6415,2.6414,2.6401,2.6401,2.6394,0,0,0,2.6423,2.6422,2.6422,2.6421,2.6419,2.6418,2.642,2.6416,2.6416,2.6414,2.6415,2.6414,2.6401,2.6401,2.6395,2.6391,0,0,0,2.6423,2.6422,2.6421,2.6421,2.642,2.6418,2.6418,2.6416,2.6416,2.6415,2.6414,2.6401,2.6401,2.6395,2.6392,2.6386,0,0,0,2.6422,2.6416,2.6421,2.6414,2.642,2.6414,2.6418,2.6414,2.6411,2.6415,2.6401,2.6401,2.6395,2.6392,2.6386,2.638,2.6378,0,0,2.6413,2.6415,2.6411,2.6415,2.6408,2.6414,2.6406,2.6406,2.6407,2.6403,2.6403,2.6394,2.6392,2.6386,2.6367,2.6365,0,0,0,2.6407,2.6404,2.6403,2.64,2.6399,2.6398,2.6399,2.6399,2.6395,2.6405,2.6391,2.639,2.6387,2.6384,2.6382,2.6379,2.64,2.64,2.64,2.6393,2.6394,2.6387,2.6388,2.6385,2.6386,2.6384,2.6383,2.6387,2.6383,2.6382,2.637,2.6367,2.6365,2.6362,2.638,2.638,2.638,2.638,2.6379,2.6374,2.6377,2.6372,2.6373,2.6368,2.6368,2.6371,2.6366,2.6372,2.6369,2.6374,2.6363,2.636,2.6379,2.6379,2.6379,2.6379,2.6379,2.6369,2.6367,2.6366,2.6361,2.6358,2.6359,2.6354,2.6356,2.6358,2.6355,2.6353,2.6353,2.6353,2.6354,2.6354,2.6354,2.6354,2.6354,2.6354,2.6358,2.6357,2.6353,2.635,2.6348,2.6346,2.6345,2.6343,2.6342,2.6343,2.6343,2.6346,2.6362,2.6365,2.6353,2.6353,2.6354,2.6354,2.6354,2.6342,2.6346,2.6339,2.6336,2.6333,2.6328,2.6331,2.6326,2.6325,2.6322,2.6325,2.6337,2.6339,2.634,2.6343,2.6325,2.6325,2.6325,2.6325,2.6333,2.6334,2.6326,2.6322,2.6318,2.6319,2.631,2.631,2.631,2.6308,2.6311,2.6316,2.6317,2.6318,2.6319,2.6322,2.63,2.63,2.63,2.6323,2.6323,2.6315,2.6315,2.6312,2.6309,2.63,2.6295,2.6296,2.6299,2.6307,2.6308,2.6315,2.6317,2.632,2.6323,2.6328,0,0]}]]